Time,TemperatureF,DewpointF,PressureIn,WindDirection,WindDirectionDegrees,WindSpeedMPH,WindSpeedGustMPH,Humidity,HourlyPrecipIn,Conditions,Clouds,dailyrainin,SolarRadiationWatts/m^2,SoftwareType,DateUTC
2013-10-05 00:03:00,33.7,12.0,30.38,ESE,106,3.0,14.0,40,0.00,,,0.00,0,WeatherCatV1.21B27,2013-10-05 07:03:00,
2013-10-05 00:08:00,33.5,11.8,30.38,East,97,3.0,13.0,40,0.00,,,0.00,0,WeatherCatV1.21B27,2013-10-05 07:08:00,
2013-10-05 00:13:00,33.4,11.7,30.38,ESE,114,6.0,11.0,40,0.00,,,0.00,0,WeatherCatV1.21B27,2013-10-05 07:13:00,
2013-10-05 00:18:00,33.5,11.8,30.37,ESE,103,4.0,16.0,40,0.00,,,0.00,0,WeatherCatV1.21B27,2013-10-05 07:18:00,
2013-10-05 00:23:00,33.2,12.1,30.37,ESE,112,7.0,12.0,41,0.00,,,0.00,0,WeatherCatV1.21B27,2013-10-05 07:23:00,
2013-10-05 00:28:00,33.4,11.7,30.37,ESE,102,5.0,10.0,40,0.00,,,0.00,0,WeatherCatV1.21B27,2013-10-05 07:28:00,
2013-10-05 00:33:00,33.2,11.5,30.37,ESE,118,2.0,12.0,40,0.00,,,0.00,0,WeatherCatV1.21B27,2013-10-05 07:33:00,
2013-10-05 00:38:00,33.2,11.0,30.37,ESE,105,5.0,14.0,39,0.00,,,0.00,0,WeatherCatV1.21B27,2013-10-05 07:38:00,
2013-10-05 00:43:00,33.5,11.2,30.37,ESE,117,3.0,10.0,39,0.00,,,0.00,0,WeatherCatV1.21B27,2013-10-05 07:43:00,
2013-10-05 00:48:00,33.4,11.1,30.38,East,100,11.0,12.0,39,0.00,,,0.00,0,WeatherCatV1.21B27,2013-10-05 07:48:00,
2013-10-05 00:53:00,33.4,11.1,30.38,East,95,5.0,12.0,39,0.00,,,0.00,0,WeatherCatV1.21B27,2013-10-05 07:53:00,
2013-10-05 00:58:00,33.5,11.8,30.38,ESE,115,4.0,14.0,40,0.00,,,0.00,0,WeatherCatV1.21B27,2013-10-05 07:58:00,
2013-10-05 01:03:00,33.4,11.7,30.39,East,101,6.0,11.0,40,0.00,,,0.00,0,WeatherCatV1.21B27,2013-10-05 08:03:00,
2013-10-05 01:08:00,33.2,11.5,30.39,ESE,102,5.0,11.0,40,0.00,,,0.00,0,WeatherCatV1.21B27,2013-10-05 08:08:00,
2013-10-05 01:13:00,33.1,11.4,30.39,East,101,9.0,12.0,40,0.00,,,0.00,0,WeatherCatV1.21B27,2013-10-05 08:13:00,
2013-10-05 01:18:00,32.9,11.8,30.37,East,96,10.0,14.0,41,0.00,,,0.00,0,WeatherCatV1.21B27,2013-10-05 08:18:00,
2013-10-05 01:23:00,32.9,11.8,30.37,ESE,107,7.0,20.0,41,0.00,,,0.00,0,WeatherCatV1.21B27,2013-10-05 08:23:00,
2013-10-05 01:28:00,32.8,11.7,30.37,SSE,150,10.0,12.0,41,0.00,,,0.00,0,WeatherCatV1.21B27,2013-10-05 08:28:00,
2013-10-05 01:33:00,32.7,12.2,30.37,SE,129,9.0,16.0,42,0.00,,,0.00,0,WeatherCatV1.21B27,2013-10-05 08:33:00,
2013-10-05 01:38:00,32.7,12.2,30.37,ESE,102,8.0,14.0,42,0.00,,,0.00,0,WeatherCatV1.21B27,2013-10-05 08:38:00,
2013-10-05 01:43:00,32.5,12.0,30.37,East,99,11.0,14.0,42,0.00,,,0.00,0,WeatherCatV1.21B27,2013-10-05 08:43:00,
2013-10-05 01:48:00,32.4,12.4,30.37,ESE,104,6.0,15.0,43,0.00,,,0.00,0,WeatherCatV1.21B27,2013-10-05 08:48:00,
2013-10-05 01:53:00,32.4,12.4,30.37,ESE,112,13.0,16.0,43,0.00,,,0.00,0,WeatherCatV1.21B27,2013-10-05 08:53:00,
2013-10-05 01:58:00,32.4,12.4,30.37,ESE,118,4.0,18.0,43,0.00,,,0.00,0,WeatherCatV1.21B27,2013-10-05 08:58:00,
2013-10-05 02:03:00,32.4,12.4,30.39,SE,137,11.0,16.0,43,0.00,,,0.00,0,WeatherCatV1.21B27,2013-10-05 09:03:00,
2013-10-05 02:08:00,32.4,12.4,30.39,SSE,150,11.0,12.0,43,0.00,,,0.00,0,WeatherCatV1.21B27,2013-10-05 09:08:00,
2013-10-05 02:13:00,32.2,12.2,30.39,ESE,103,10.0,19.0,43,0.00,,,0.00,0,WeatherCatV1.21B27,2013-10-05 09:13:00,
2013-10-05 02:18:00,32.4,12.4,30.37,SE,135,11.0,15.0,43,0.00,,,0.00,0,WeatherCatV1.21B27,2013-10-05 09:18:00,
2013-10-05 02:23:00,32.4,12.4,30.37,ESE,102,9.0,14.0,43,0.00,,,0.00,0,WeatherCatV1.21B27,2013-10-05 09:23:00,
2013-10-05 02:28:00,32.2,12.8,30.37,SSE,147,12.0,12.0,44,0.00,,,0.00,0,WeatherCatV1.21B27,2013-10-05 09:28:00,
2013-10-05 02:33:00,32.1,12.7,30.37,SE,137,17.0,17.0,44,0.00,,,0.00,0,WeatherCatV1.21B27,2013-10-05 09:33:00,
2013-10-05 02:38:00,32.1,12.7,30.37,East,100,11.0,16.0,44,0.00,,,0.00,0,WeatherCatV1.21B27,2013-10-05 09:38:00,
2013-10-05 02:43:00,31.9,13.0,30.37,SSE,164,11.0,17.0,45,0.00,,,0.00,0,WeatherCatV1.21B27,2013-10-05 09:43:00,
2013-10-05 02:48:00,31.9,13.0,30.36,ESE,117,9.0,19.0,45,0.00,,,0.00,0,WeatherCatV1.21B27,2013-10-05 09:48:00,
2013-10-05 02:53:00,31.9,13.0,30.36,ESE,119,4.0,14.0,45,0.00,,,0.00,0,WeatherCatV1.21B27,2013-10-05 09:53:00,
2013-10-05 02:58:00,31.8,12.9,30.36,SE,131,10.0,21.0,45,0.00,,,0.00,0,WeatherCatV1.21B27,2013-10-05 09:58:00,
2013-10-05 03:03:00,31.6,12.7,30.36,SE,131,9.0,14.0,45,0.00,,,0.00,0,WeatherCatV1.21B27,2013-10-05 10:03:00,
2013-10-05 03:08:00,31.5,13.1,30.36,ESE,117,5.0,16.0,46,0.00,,,0.00,0,WeatherCatV1.21B27,2013-10-05 10:08:00,
2013-10-05 03:13:00,31.6,13.2,30.36,SE,135,10.0,19.0,46,0.00,,,0.00,0,WeatherCatV1.21B27,2013-10-05 10:13:00,
2013-10-05 03:18:00,31.6,13.2,30.36,ESE,118,8.0,16.0,46,0.00,,,0.00,0,WeatherCatV1.21B27,2013-10-05 10:18:00,
2013-10-05 03:23:00,31.6,13.2,30.36,East,97,13.0,23.0,46,0.00,,,0.00,0,WeatherCatV1.21B27,2013-10-05 10:23:00,
2013-10-05 03:28:00,31.6,13.2,30.36,SE,145,10.0,15.0,46,0.00,,,0.00,0,WeatherCatV1.21B27,2013-10-05 10:28:00,
2013-10-05 03:33:00,31.5,13.1,30.36,SE,124,16.0,28.0,46,0.00,,,0.00,0,WeatherCatV1.21B27,2013-10-05 10:33:00,
2013-10-05 03:38:00,31.5,13.1,30.36,East,86,12.0,18.0,46,0.00,,,0.00,0,WeatherCatV1.21B27,2013-10-05 10:38:00,
2013-10-05 03:43:00,31.6,13.2,30.36,SE,132,9.0,18.0,46,0.00,,,0.00,0,WeatherCatV1.21B27,2013-10-05 10:43:00,
2013-10-05 03:48:00,31.6,13.2,30.36,ESE,114,12.0,20.0,46,0.00,,,0.00,0,WeatherCatV1.21B27,2013-10-05 10:48:00,
2013-10-05 03:53:00,31.6,13.2,30.36,ESE,107,11.0,19.0,46,0.00,,,0.00,0,WeatherCatV1.21B27,2013-10-05 10:53:00,
2013-10-05 03:58:00,31.5,13.6,30.36,ESE,122,11.0,14.0,47,0.00,,,0.00,0,WeatherCatV1.21B27,2013-10-05 10:58:00,
2013-10-05 04:03:00,31.5,13.6,30.36,ESE,117,10.0,17.0,47,0.00,,,0.00,0,WeatherCatV1.21B27,2013-10-05 11:03:00,
2013-10-05 04:08:00,31.8,13.4,30.36,ESE,115,14.0,16.0,46,0.00,,,0.00,0,WeatherCatV1.21B27,2013-10-05 11:08:00,
2013-10-05 04:13:00,31.9,13.5,30.36,ESE,103,9.0,16.0,46,0.00,,,0.00,0,WeatherCatV1.21B27,2013-10-05 11:13:00,
2013-10-05 04:18:00,31.9,14.0,30.38,ESE,121,11.0,16.0,47,0.00,,,0.00,0,WeatherCatV1.21B27,2013-10-05 11:18:00,
2013-10-05 04:23:00,31.6,13.7,30.38,ESE,117,12.0,13.0,47,0.00,,,0.00,0,WeatherCatV1.21B27,2013-10-05 11:23:00,
2013-10-05 04:28:00,31.5,14.1,30.38,SE,133,12.0,14.0,48,0.00,,,0.00,0,WeatherCatV1.21B27,2013-10-05 11:28:00,
2013-10-05 04:33:00,31.3,13.9,30.38,ESE,120,11.0,16.0,48,0.00,,,0.00,0,WeatherCatV1.21B27,2013-10-05 11:33:00,
2013-10-05 04:38:00,31.5,13.6,30.38,SE,128,7.0,17.0,47,0.00,,,0.00,0,WeatherCatV1.21B27,2013-10-05 11:38:00,
2013-10-05 04:43:00,31.6,13.7,30.38,SE,124,12.0,15.0,47,0.00,,,0.00,0,WeatherCatV1.21B27,2013-10-05 11:43:00,
2013-10-05 04:48:00,31.6,13.7,30.38,SE,126,7.0,17.0,47,0.00,,,0.00,0,WeatherCatV1.21B27,2013-10-05 11:48:00,
2013-10-05 04:53:00,31.5,13.6,30.38,ESE,122,10.0,16.0,47,0.00,,,0.00,0,WeatherCatV1.21B27,2013-10-05 11:53:00,
2013-10-05 04:58:00,31.3,13.9,30.38,ESE,108,5.0,16.0,48,0.00,,,0.00,0,WeatherCatV1.21B27,2013-10-05 11:58:00,
2013-10-05 05:03:00,31.2,13.8,30.38,ESE,113,11.0,13.0,48,0.00,,,0.00,0,WeatherCatV1.21B27,2013-10-05 12:03:00,
2013-10-05 05:08:00,30.7,13.8,30.38,ESE,110,15.0,15.0,49,0.00,,,0.00,0,WeatherCatV1.21B27,2013-10-05 12:08:00,
2013-10-05 05:13:00,30.7,13.8,30.38,East,98,10.0,15.0,49,0.00,,,0.00,0,WeatherCatV1.21B27,2013-10-05 12:13:00,
2013-10-05 05:18:00,30.6,13.7,30.42,SE,146,9.0,12.0,49,0.00,,,0.00,0,WeatherCatV1.21B27,2013-10-05 12:18:00,
2013-10-05 05:23:00,30.6,13.7,30.42,ESE,119,7.0,11.0,49,0.00,,,0.00,0,WeatherCatV1.21B27,2013-10-05 12:23:00,
2013-10-05 05:28:00,30.7,13.8,30.42,SE,145,10.0,12.0,49,0.00,,,0.00,0,WeatherCatV1.21B27,2013-10-05 12:28:00,
2013-10-05 05:33:00,30.7,13.8,30.42,ESE,117,6.0,14.0,49,0.00,,,0.00,0,WeatherCatV1.21B27,2013-10-05 12:33:00,
2013-10-05 05:38:00,30.6,14.2,30.42,SE,143,6.0,11.0,50,0.00,,,0.00,0,WeatherCatV1.21B27,2013-10-05 12:38:00,
2013-10-05 05:43:00,30.3,13.9,30.42,SE,141,11.0,14.0,50,0.00,,,0.00,0,WeatherCatV1.21B27,2013-10-05 12:43:00,
2013-10-05 05:48:00,30.3,13.9,30.42,SE,133,7.0,13.0,50,0.00,,,0.00,0,WeatherCatV1.21B27,2013-10-05 12:48:00,
2013-10-05 05:53:00,30.1,13.7,30.42,ESE,104,5.0,9.0,50,0.00,,,0.00,0,WeatherCatV1.21B27,2013-10-05 12:53:00,
2013-10-05 05:58:00,30.1,13.7,30.42,SE,126,9.0,14.0,50,0.00,,,0.00,0,WeatherCatV1.21B27,2013-10-05 12:58:00,
2013-10-05 06:03:00,30.3,13.9,30.42,SE,146,7.0,13.0,50,0.00,,,0.00,0,WeatherCatV1.21B27,2013-10-05 13:03:00,
2013-10-05 06:08:00,30.4,13.6,30.42,SE,126,6.0,17.0,49,0.00,,,0.00,0,WeatherCatV1.21B27,2013-10-05 13:08:00,
2013-10-05 06:13:00,30.6,13.7,30.42,ESE,111,17.0,18.0,49,0.00,,,0.00,0,WeatherCatV1.21B27,2013-10-05 13:13:00,
2013-10-05 06:18:00,30.4,14.0,30.43,East,101,5.0,16.0,50,0.00,,,0.00,0,WeatherCatV1.21B27,2013-10-05 13:18:00,
2013-10-05 06:23:00,30.4,14.0,30.43,SE,132,10.0,14.0,50,0.00,,,0.00,0,WeatherCatV1.21B27,2013-10-05 13:23:00,
2013-10-05 06:28:00,30.3,14.4,30.43,SE,124,10.0,15.0,51,0.00,,,0.00,0,WeatherCatV1.21B27,2013-10-05 13:28:00,
2013-10-05 06:33:00,30.3,14.4,30.44,ESE,119,9.0,13.0,51,0.00,,,0.00,0,WeatherCatV1.21B27,2013-10-05 13:33:00,
2013-10-05 06:38:00,30.1,14.6,30.44,ESE,108,7.0,15.0,52,0.00,,,0.00,0,WeatherCatV1.21B27,2013-10-05 13:38:00,
2013-10-05 06:43:00,29.8,14.4,30.44,ESE,117,9.0,12.0,52,0.00,,,0.00,0,WeatherCatV1.21B27,2013-10-05 13:43:00,
2013-10-05 06:48:00,29.8,14.4,30.44,ESE,116,10.0,15.0,52,0.00,,,0.00,0,WeatherCatV1.21B27,2013-10-05 13:48:00,
2013-10-05 06:53:00,29.8,14.4,30.44,ESE,114,8.0,17.0,52,0.00,,,0.00,0,WeatherCatV1.21B27,2013-10-05 13:53:00,
2013-10-05 06:58:00,29.7,14.7,30.44,East,93,12.0,12.0,53,0.00,,,0.00,0,WeatherCatV1.21B27,2013-10-05 13:58:00,
2013-10-05 07:03:00,29.7,14.7,30.45,East,99,7.0,12.0,53,0.00,,,0.00,7,WeatherCatV1.21B27,2013-10-05 14:03:00,
2013-10-05 07:08:00,29.8,14.8,30.45,East,81,9.0,16.0,53,0.00,,,0.00,9,WeatherCatV1.21B27,2013-10-05 14:08:00,
2013-10-05 07:13:00,30.0,15.0,30.45,ESE,112,10.0,13.0,53,0.00,,,0.00,11,WeatherCatV1.21B27,2013-10-05 14:13:00,
2013-10-05 07:18:00,30.1,14.6,30.47,SE,139,9.0,12.0,52,0.00,,,0.00,12,WeatherCatV1.21B27,2013-10-05 14:18:00,
2013-10-05 07:23:00,30.3,14.8,30.47,ESE,111,7.0,13.0,52,0.00,,,0.00,14,WeatherCatV1.21B27,2013-10-05 14:23:00,
2013-10-05 07:28:00,30.6,15.1,30.47,ESE,118,9.0,14.0,52,0.00,,,0.00,19,WeatherCatV1.21B27,2013-10-05 14:28:00,
2013-10-05 07:33:00,30.9,14.9,30.45,ESE,120,11.0,14.0,51,0.00,,,0.00,35,WeatherCatV1.21B27,2013-10-05 14:33:00,
2013-10-05 07:38:00,31.2,14.8,30.45,ESE,103,6.0,14.0,50,0.00,,,0.00,46,WeatherCatV1.21B27,2013-10-05 14:38:00,
2013-10-05 07:43:00,31.6,14.7,30.45,East,99,5.0,14.0,49,0.00,,,0.00,60,WeatherCatV1.21B27,2013-10-05 14:43:00,
2013-10-05 07:48:00,31.9,14.9,30.46,ESE,106,13.0,16.0,49,0.00,,,0.00,76,WeatherCatV1.21B27,2013-10-05 14:48:00,
2013-10-05 07:53:00,32.4,14.9,30.46,ESE,120,11.0,14.0,48,0.00,,,0.00,91,WeatherCatV1.21B27,2013-10-05 14:53:00,
2013-10-05 07:58:00,32.8,14.8,30.46,ESE,106,10.0,15.0,47,0.00,,,0.00,107,WeatherCatV1.21B27,2013-10-05 14:58:00,
2013-10-05 08:03:00,33.2,15.2,30.45,ESE,113,10.0,12.0,47,0.00,,,0.00,125,WeatherCatV1.21B27,2013-10-05 15:03:00,
2013-10-05 08:08:00,33.5,15.0,30.45,ESE,112,9.0,14.0,46,0.00,,,0.00,139,WeatherCatV1.21B27,2013-10-05 15:08:00,
2013-10-05 08:13:00,33.8,14.7,30.45,ESE,112,9.0,12.0,45,0.00,,,0.00,155,WeatherCatV1.21B27,2013-10-05 15:13:00,
2013-10-05 08:18:00,34.1,15.0,30.45,ESE,114,8.0,14.0,45,0.00,,,0.00,171,WeatherCatV1.21B27,2013-10-05 15:18:00,
2013-10-05 08:23:00,34.6,14.9,30.45,ESE,106,9.0,13.0,44,0.00,,,0.00,185,WeatherCatV1.21B27,2013-10-05 15:23:00,
2013-10-05 08:28:00,34.9,15.2,30.45,ESE,107,7.0,14.0,44,0.00,,,0.00,200,WeatherCatV1.21B27,2013-10-05 15:28:00,
2013-10-05 08:33:00,35.2,15.0,30.46,ESE,106,10.0,11.0,43,0.00,,,0.00,216,WeatherCatV1.21B27,2013-10-05 15:33:00,
2013-10-05 08:38:00,35.5,14.7,30.46,ESE,108,7.0,11.0,42,0.00,,,0.00,234,WeatherCatV1.21B27,2013-10-05 15:38:00,
2013-10-05 08:43:00,35.9,14.5,30.46,ESE,103,4.0,11.0,41,0.00,,,0.00,250,WeatherCatV1.21B27,2013-10-05 15:43:00,
2013-10-05 08:48:00,36.6,14.6,30.44,ESE,104,9.0,10.0,40,0.00,,,0.00,267,WeatherCatV1.21B27,2013-10-05 15:48:00,
2013-10-05 08:53:00,37.0,14.9,30.44,ESE,108,7.0,13.0,40,0.00,,,0.00,283,WeatherCatV1.21B27,2013-10-05 15:53:00,
2013-10-05 08:58:00,37.5,14.8,30.44,ESE,120,7.0,11.0,39,0.00,,,0.00,297,WeatherCatV1.21B27,2013-10-05 15:58:00,
2013-10-05 09:03:00,38.0,14.7,30.42,ESE,105,7.0,11.0,38,0.00,,,0.00,313,WeatherCatV1.21B27,2013-10-05 16:03:00,
2013-10-05 09:08:00,38.2,14.9,30.42,ESE,107,10.0,13.0,38,0.00,,,0.00,330,WeatherCatV1.21B27,2013-10-05 16:08:00,
2013-10-05 09:13:00,38.2,14.2,30.42,ESE,110,5.0,7.0,37,0.00,,,0.00,346,WeatherCatV1.21B27,2013-10-05 16:13:00,
2013-10-05 09:18:00,38.3,14.9,30.45,ENE,78,9.0,10.0,38,0.00,,,0.00,362,WeatherCatV1.21B27,2013-10-05 16:18:00,
2013-10-05 09:23:00,38.6,14.6,30.45,ESE,105,7.0,13.0,37,0.00,,,0.00,378,WeatherCatV1.21B27,2013-10-05 16:23:00,
2013-10-05 09:28:00,38.9,14.9,30.45,ESE,116,5.0,14.0,37,0.00,,,0.00,396,WeatherCatV1.21B27,2013-10-05 16:28:00,
2013-10-05 09:33:00,38.9,14.2,30.44,ESE,120,9.0,15.0,36,0.00,,,0.00,408,WeatherCatV1.21B27,2013-10-05 16:33:00,
2013-10-05 09:39:00,39.1,14.4,30.44,ESE,102,12.0,13.0,36,0.00,,,0.00,424,WeatherCatV1.21B27,2013-10-05 16:39:00,
2013-10-05 09:44:00,39.3,14.6,30.44,ESE,118,7.0,12.0,36,0.00,,,0.00,438,WeatherCatV1.21B27,2013-10-05 16:44:00,
2013-10-05 09:49:00,39.5,14.1,30.44,ESE,108,7.0,13.0,35,0.00,,,0.00,452,WeatherCatV1.21B27,2013-10-05 16:49:00,
2013-10-05 09:54:00,39.6,14.2,30.44,ESE,116,9.0,12.0,35,0.00,,,0.00,466,WeatherCatV1.21B27,2013-10-05 16:54:00,
2013-10-05 09:59:00,39.6,14.2,30.44,SE,134,6.0,13.0,35,0.00,,,0.00,482,WeatherCatV1.21B27,2013-10-05 16:59:00,
2013-10-05 10:04:00,40.2,14.1,30.45,ESE,109,5.0,14.0,34,0.00,,,0.00,497,WeatherCatV1.21B27,2013-10-05 17:04:00,
2013-10-05 10:09:00,40.8,14.6,30.45,ESE,106,7.0,11.0,34,0.00,,,0.00,506,WeatherCatV1.21B27,2013-10-05 17:09:00,
2013-10-05 10:14:00,41.1,14.9,30.45,East,101,4.0,11.0,34,0.00,,,0.00,520,WeatherCatV1.21B27,2013-10-05 17:14:00,
2013-10-05 10:19:00,41.5,14.6,30.45,ESE,106,7.0,14.0,33,0.00,,,0.00,534,WeatherCatV1.21B27,2013-10-05 17:19:00,
2013-10-05 10:24:00,41.6,13.9,30.45,SE,130,9.0,13.0,32,0.00,,,0.00,545,WeatherCatV1.21B27,2013-10-05 17:24:00,
2013-10-05 10:29:00,41.6,13.9,30.45,ESE,119,9.0,11.0,32,0.00,,,0.00,559,WeatherCatV1.21B27,2013-10-05 17:29:00,
2013-10-05 10:34:00,41.8,13.4,30.44,East,99,2.0,14.0,31,0.00,,,0.00,571,WeatherCatV1.21B27,2013-10-05 17:34:00,
2013-10-05 10:39:00,42.2,13.8,30.44,ESE,118,11.0,13.0,31,0.00,,,0.00,582,WeatherCatV1.21B27,2013-10-05 17:39:00,
2013-10-05 10:44:00,42.5,14.0,30.44,ESE,113,8.0,14.0,31,0.00,,,0.00,592,WeatherCatV1.21B27,2013-10-05 17:44:00,
2013-10-05 10:49:00,42.9,13.6,30.44,ESE,103,4.0,12.0,30,0.00,,,0.00,603,WeatherCatV1.21B27,2013-10-05 17:49:00,
2013-10-05 10:54:00,43.3,13.2,30.44,ESE,116,6.0,14.0,29,0.00,,,0.00,613,WeatherCatV1.21B27,2013-10-05 17:54:00,
2013-10-05 10:59:00,43.8,12.8,30.44,ESE,121,3.0,12.0,28,0.00,,,0.00,624,WeatherCatV1.21B27,2013-10-05 17:59:00,
2013-10-05 11:04:00,44.3,13.3,30.43,East,101,6.0,12.0,28,0.00,,,0.00,633,WeatherCatV1.21B27,2013-10-05 18:04:00,
2013-10-05 11:09:00,44.9,13.8,30.43,ESE,118,6.0,11.0,28,0.00,,,0.00,643,WeatherCatV1.21B27,2013-10-05 18:09:00,
2013-10-05 11:14:00,45.1,14.0,30.43,East,97,10.0,14.0,28,0.00,,,0.00,650,WeatherCatV1.21B27,2013-10-05 18:14:00,
2013-10-05 11:19:00,44.6,12.7,30.43,ESE,110,8.0,17.0,27,0.00,,,0.00,659,WeatherCatV1.21B27,2013-10-05 18:19:00,
2013-10-05 11:24:00,44.6,13.5,30.43,ESE,110,7.0,17.0,28,0.00,,,0.00,668,WeatherCatV1.21B27,2013-10-05 18:24:00,
2013-10-05 11:29:00,45.1,12.3,30.43,ESE,121,11.0,15.0,26,0.00,,,0.00,677,WeatherCatV1.21B27,2013-10-05 18:29:00,
2013-10-05 11:34:00,45.4,13.4,30.43,ESE,103,14.0,14.0,27,0.00,,,0.00,686,WeatherCatV1.21B27,2013-10-05 18:34:00,
2013-10-05 11:39:00,45.5,13.5,30.43,ESE,108,12.0,15.0,27,0.00,,,0.00,691,WeatherCatV1.21B27,2013-10-05 18:39:00,
2013-10-05 11:44:00,45.7,13.7,30.43,SE,128,10.0,16.0,27,0.00,,,0.00,698,WeatherCatV1.21B27,2013-10-05 18:44:00,
2013-10-05 11:49:00,45.7,13.7,30.41,ESE,120,10.0,16.0,27,0.00,,,0.00,703,WeatherCatV1.21B27,2013-10-05 18:49:00,
2013-10-05 11:54:00,45.8,12.9,30.41,SE,134,6.0,16.0,26,0.00,,,0.00,710,WeatherCatV1.21B27,2013-10-05 18:54:00,
2013-10-05 11:59:00,46.1,13.1,30.41,ESE,112,7.0,13.0,26,0.00,,,0.00,715,WeatherCatV1.21B27,2013-10-05 18:59:00,
2013-10-05 12:04:00,46.2,13.2,30.41,ESE,108,7.0,19.0,26,0.00,,,0.00,721,WeatherCatV1.21B27,2013-10-05 19:04:00,
2013-10-05 12:09:00,46.2,13.2,30.41,ESE,120,9.0,17.0,26,0.00,,,0.00,724,WeatherCatV1.21B27,2013-10-05 19:09:00,
2013-10-05 12:14:00,46.7,12.8,30.41,ESE,114,11.0,15.0,25,0.00,,,0.00,729,WeatherCatV1.21B27,2013-10-05 19:14:00,
2013-10-05 12:19:00,47.0,13.0,30.41,ESE,119,8.0,14.0,25,0.00,,,0.00,733,WeatherCatV1.21B27,2013-10-05 19:19:00,
2013-10-05 12:24:00,47.4,12.4,30.41,SSE,168,12.0,12.0,24,0.00,,,0.00,737,WeatherCatV1.21B27,2013-10-05 19:24:00,
2013-10-05 12:29:00,47.6,12.6,30.41,ESE,111,13.0,19.0,24,0.00,,,0.00,740,WeatherCatV1.21B27,2013-10-05 19:29:00,
2013-10-05 12:34:00,48.2,12.2,30.38,East,101,11.0,15.0,23,0.00,,,0.00,744,WeatherCatV1.21B27,2013-10-05 19:34:00,
2013-10-05 12:39:00,48.6,12.5,30.38,ESE,106,12.0,16.0,23,0.00,,,0.00,745,WeatherCatV1.21B27,2013-10-05 19:39:00,
2013-10-05 12:44:00,48.9,12.8,30.38,ESE,115,12.0,14.0,23,0.00,,,0.00,747,WeatherCatV1.21B27,2013-10-05 19:44:00,
2013-10-05 12:49:00,49.1,11.9,30.38,ESE,108,7.0,13.0,22,0.00,,,0.00,749,WeatherCatV1.21B27,2013-10-05 19:49:00,
2013-10-05 12:54:00,49.4,12.2,30.38,SE,131,6.0,15.0,22,0.00,,,0.00,751,WeatherCatV1.21B27,2013-10-05 19:54:00,
2013-10-05 12:59:00,49.8,12.5,30.38,SE,139,11.0,15.0,22,0.00,,,0.00,749,WeatherCatV1.21B27,2013-10-05 19:59:00,
2013-10-05 13:04:00,49.9,12.6,30.36,ESE,108,11.0,15.0,22,0.00,,,0.00,751,WeatherCatV1.21B27,2013-10-05 20:04:00,
2013-10-05 13:09:00,49.9,8.1,30.36,SE,144,11.0,16.0,18,0.00,,,0.00,749,WeatherCatV1.21B27,2013-10-05 20:09:00,
2013-10-05 13:14:00,50.1,11.7,30.36,SE,128,13.0,13.0,21,0.00,,,0.00,749,WeatherCatV1.21B27,2013-10-05 20:14:00,
2013-10-05 13:19:00,49.6,11.3,30.38,ESE,118,9.0,15.0,21,0.00,,,0.00,747,WeatherCatV1.21B27,2013-10-05 20:19:00,
2013-10-05 13:24:00,50.5,10.9,30.38,ESE,119,6.0,12.0,20,0.00,,,0.00,745,WeatherCatV1.21B27,2013-10-05 20:24:00,
2013-10-05 13:29:00,51.3,11.6,30.38,ESE,104,12.0,13.0,20,0.00,,,0.00,742,WeatherCatV1.21B27,2013-10-05 20:29:00,
2013-10-05 13:34:00,51.7,13.1,30.37,ESE,116,8.0,14.0,21,0.00,,,0.00,740,WeatherCatV1.21B27,2013-10-05 20:34:00,
2013-10-05 13:39:00,51.4,9.3,30.37,East,101,7.0,14.0,18,0.00,,,0.00,738,WeatherCatV1.21B27,2013-10-05 20:39:00,
2013-10-05 13:45:00,51.7,8.3,30.34,ESE,114,7.0,16.0,17,0.00,,,0.00,733,WeatherCatV1.21B27,2013-10-05 20:45:00,
2013-10-05 13:50:00,52.0,7.2,30.34,SSE,148,7.0,13.0,16,0.00,,,0.00,729,WeatherCatV1.21B27,2013-10-05 20:50:00,
2013-10-05 13:55:00,52.3,7.5,30.34,SE,135,10.0,11.0,16,0.00,,,0.00,726,WeatherCatV1.21B27,2013-10-05 20:55:00,
2013-10-05 14:00:00,52.3,10.1,30.34,ESE,103,0.0,10.0,18,0.00,,,0.00,721,WeatherCatV1.21B27,2013-10-05 21:00:00,
2013-10-05 14:05:00,52.6,10.3,30.34,ESE,118,7.0,11.0,18,0.00,,,0.00,715,WeatherCatV1.21B27,2013-10-05 21:05:00,
2013-10-05 14:10:00,52.8,10.5,30.34,ESE,109,1.0,9.0,18,0.00,,,0.00,708,WeatherCatV1.21B27,2013-10-05 21:10:00,
2013-10-05 14:15:00,53.1,10.7,30.34,ESE,113,6.0,11.0,18,0.00,,,0.00,703,WeatherCatV1.21B27,2013-10-05 21:15:00,
2013-10-05 14:20:00,53.2,10.8,30.34,SSE,153,7.0,12.0,18,0.00,,,0.00,698,WeatherCatV1.21B27,2013-10-05 21:20:00,
2013-10-05 14:25:00,53.2,10.8,30.34,ESE,110,4.0,10.0,18,0.00,,,0.00,689,WeatherCatV1.21B27,2013-10-05 21:25:00,
2013-10-05 14:30:00,53.3,10.9,30.34,ESE,119,6.0,11.0,18,0.00,,,0.00,684,WeatherCatV1.21B27,2013-10-05 21:30:00,
2013-10-05 14:35:00,53.6,11.1,30.34,SE,132,9.0,11.0,18,0.00,,,0.00,675,WeatherCatV1.21B27,2013-10-05 21:35:00,
2013-10-05 14:40:00,53.8,11.3,30.34,ESE,107,4.0,9.0,18,0.00,,,0.00,666,WeatherCatV1.21B27,2013-10-05 21:40:00,
2013-10-05 14:45:00,54.1,12.8,30.33,East,97,1.0,9.0,19,0.00,,,0.00,659,WeatherCatV1.21B27,2013-10-05 21:45:00,
2013-10-05 14:50:00,54.5,11.9,30.33,SSE,153,8.0,9.0,18,0.00,,,0.00,650,WeatherCatV1.21B27,2013-10-05 21:50:00,
2013-10-05 14:55:00,54.8,10.9,30.33,ESE,110,1.0,11.0,17,0.00,,,0.00,642,WeatherCatV1.21B27,2013-10-05 21:55:00,
2013-10-05 15:00:00,55.4,12.6,30.33,ESE,116,5.0,5.0,18,0.00,,,0.00,633,WeatherCatV1.21B27,2013-10-05 22:00:00,
2013-10-05 15:05:00,55.4,12.6,30.33,SE,132,4.0,10.0,18,0.00,,,0.00,622,WeatherCatV1.21B27,2013-10-05 22:05:00,
2013-10-05 15:10:00,55.4,12.6,30.33,SE,133,9.0,10.0,18,0.00,,,0.00,603,WeatherCatV1.21B27,2013-10-05 22:10:00,
2013-10-05 15:15:00,55.1,11.1,30.32,ESE,112,4.0,11.0,17,0.00,,,0.00,599,WeatherCatV1.21B27,2013-10-05 22:15:00,
2013-10-05 15:20:00,54.5,11.9,30.32,ESE,111,3.0,12.0,18,0.00,,,0.00,589,WeatherCatV1.21B27,2013-10-05 22:20:00,
2013-10-05 15:25:00,54.2,11.6,30.32,ESE,105,2.0,12.0,18,0.00,,,0.00,578,WeatherCatV1.21B27,2013-10-05 22:25:00,
2013-10-05 15:30:00,54.4,11.8,30.34,ESE,106,4.0,9.0,18,0.00,,,0.00,568,WeatherCatV1.21B27,2013-10-05 22:30:00,
2013-10-05 15:36:00,54.5,11.9,30.34,ESE,112,3.0,6.0,18,0.00,,,0.00,552,WeatherCatV1.21B27,2013-10-05 22:36:00,
2013-10-05 15:41:00,54.2,11.6,30.34,ESE,106,4.0,10.0,18,0.00,,,0.00,540,WeatherCatV1.21B27,2013-10-05 22:41:00,
2013-10-05 15:46:00,54.1,11.6,30.34,ESE,121,5.0,12.0,18,0.00,,,0.00,527,WeatherCatV1.21B27,2013-10-05 22:46:00,
2013-10-05 15:51:00,54.2,11.6,30.34,East,96,3.0,9.0,18,0.00,,,0.00,513,WeatherCatV1.21B27,2013-10-05 22:51:00,
2013-10-05 15:56:00,54.2,11.6,30.34,ESE,112,2.0,9.0,18,0.00,,,0.00,499,WeatherCatV1.21B27,2013-10-05 22:56:00,
2013-10-05 16:01:00,54.1,11.6,30.33,ESE,119,7.0,7.0,18,0.00,,,0.00,483,WeatherCatV1.21B27,2013-10-05 23:01:00,
2013-10-05 16:06:00,53.9,11.4,30.33,SE,138,6.0,14.0,18,0.00,,,0.00,473,WeatherCatV1.21B27,2013-10-05 23:06:00,
2013-10-05 16:11:00,54.2,11.6,30.33,SSE,158,11.0,11.0,18,0.00,,,0.00,459,WeatherCatV1.21B27,2013-10-05 23:11:00,
2013-10-05 16:16:00,54.2,11.6,30.33,SE,134,10.0,12.0,18,0.00,,,0.00,443,WeatherCatV1.21B27,2013-10-05 23:16:00,
2013-10-05 16:21:00,53.9,12.6,30.33,ESE,112,3.0,13.0,19,0.00,,,0.00,427,WeatherCatV1.21B27,2013-10-05 23:21:00,
2013-10-05 16:26:00,53.5,11.1,30.33,ESE,119,6.0,9.0,18,0.00,,,0.00,413,WeatherCatV1.21B27,2013-10-05 23:26:00,
2013-10-05 16:31:00,53.1,11.9,30.33,ESE,108,4.0,11.0,19,0.00,,,0.00,396,WeatherCatV1.21B27,2013-10-05 23:31:00,
2013-10-05 16:36:00,52.9,11.8,30.33,ESE,103,4.0,11.0,19,0.00,,,0.00,383,WeatherCatV1.21B27,2013-10-05 23:36:00,
2013-10-05 16:41:00,52.9,11.8,30.33,ESE,123,4.0,9.0,19,0.00,,,0.00,367,WeatherCatV1.21B27,2013-10-05 23:41:00,
2013-10-05 16:46:00,52.8,11.7,30.32,ESE,121,4.0,9.0,19,0.00,,,0.00,352,WeatherCatV1.21B27,2013-10-05 23:46:00,
2013-10-05 16:51:00,52.6,12.7,30.32,East,93,12.0,14.0,20,0.00,,,0.00,334,WeatherCatV1.21B27,2013-10-05 23:51:00,
2013-10-05 16:56:00,52.5,12.6,30.32,ESE,110,5.0,10.0,20,0.00,,,0.00,316,WeatherCatV1.21B27,2013-10-05 23:56:00,
2013-10-05 17:01:00,52.2,12.4,30.34,ESE,116,6.0,7.0,20,0.00,,,0.00,301,WeatherCatV1.21B27,2013-10-06 00:01:00,
2013-10-05 17:06:00,51.9,12.1,30.34,ESE,115,6.0,9.0,20,0.00,,,0.00,46,WeatherCatV1.21B27,2013-10-06 00:06:00,
2013-10-05 17:11:00,51.7,11.9,30.34,ESE,115,5.0,10.0,20,0.00,,,0.00,46,WeatherCatV1.21B27,2013-10-06 00:11:00,
2013-10-05 17:16:00,51.6,11.9,30.34,East,98,3.0,9.0,20,0.00,,,0.00,229,WeatherCatV1.21B27,2013-10-06 00:16:00,
2013-10-05 17:21:00,51.3,12.7,30.34,SE,126,4.0,10.0,21,0.00,,,0.00,53,WeatherCatV1.21B27,2013-10-06 00:21:00,
2013-10-05 17:26:00,51.1,12.6,30.34,ESE,104,4.0,11.0,21,0.00,,,0.00,216,WeatherCatV1.21B27,2013-10-06 00:26:00,
2013-10-05 17:31:00,51.3,12.7,30.35,ESE,110,2.0,11.0,21,0.00,,,0.00,199,WeatherCatV1.21B27,2013-10-06 00:31:00,
2013-10-05 17:36:00,51.0,12.5,30.35,ESE,106,5.0,8.0,21,0.00,,,0.00,181,WeatherCatV1.21B27,2013-10-06 00:36:00,
2013-10-05 17:41:00,50.8,13.4,30.35,ESE,109,4.0,7.0,22,0.00,,,0.00,163,WeatherCatV1.21B27,2013-10-06 00:41:00,
2013-10-05 17:46:00,50.5,13.1,30.35,ESE,108,10.0,10.0,22,0.00,,,0.00,149,WeatherCatV1.21B27,2013-10-06 00:46:00,
2013-10-05 17:51:00,50.2,12.8,30.35,SE,133,6.0,8.0,22,0.00,,,0.00,134,WeatherCatV1.21B27,2013-10-06 00:51:00,
2013-10-05 17:56:00,49.9,13.6,30.35,ESE,116,6.0,10.0,23,0.00,,,0.00,118,WeatherCatV1.21B27,2013-10-06 00:56:00,
2013-10-05 18:01:00,49.6,13.3,30.35,ESE,106,4.0,9.0,23,0.00,,,0.00,100,WeatherCatV1.21B27,2013-10-06 01:01:00,
2013-10-05 18:06:00,49.5,13.3,30.35,ESE,118,5.0,9.0,23,0.00,,,0.00,86,WeatherCatV1.21B27,2013-10-06 01:06:00,
2013-10-05 18:11:00,49.4,13.2,30.35,East,97,3.0,10.0,23,0.00,,,0.00,70,WeatherCatV1.21B27,2013-10-06 01:11:00,
2013-10-05 18:16:00,49.1,13.9,30.37,ESE,120,6.0,10.0,24,0.00,,,0.00,53,WeatherCatV1.21B27,2013-10-06 01:16:00,
2013-10-05 18:21:00,48.8,13.6,30.37,ESE,114,6.0,9.0,24,0.00,,,0.00,40,WeatherCatV1.21B27,2013-10-06 01:21:00,
2013-10-05 18:26:00,48.6,13.5,30.37,ESE,121,8.0,9.0,24,0.00,,,0.00,23,WeatherCatV1.21B27,2013-10-06 01:26:00,
2013-10-05 18:31:00,48.3,13.2,30.37,ESE,114,7.0,9.0,24,0.00,,,0.00,7,WeatherCatV1.21B27,2013-10-06 01:31:00,
2013-10-05 18:36:00,48.0,12.9,30.37,ESE,114,3.0,7.0,24,0.00,,,0.00,5,WeatherCatV1.21B27,2013-10-06 01:36:00,
2013-10-05 18:41:00,47.7,12.7,30.37,ESE,114,5.0,7.0,24,0.00,,,0.00,0,WeatherCatV1.21B27,2013-10-06 01:41:00,
2013-10-05 18:46:00,47.6,13.5,30.37,East,100,3.0,7.0,25,0.00,,,0.00,0,WeatherCatV1.21B27,2013-10-06 01:46:00,
2013-10-05 18:51:00,47.6,12.6,30.37,ESE,114,6.0,7.0,24,0.00,,,0.00,0,WeatherCatV1.21B27,2013-10-06 01:51:00,
2013-10-05 18:56:00,47.4,12.4,30.37,SE,127,8.0,8.0,24,0.00,,,0.00,0,WeatherCatV1.21B27,2013-10-06 01:56:00,
2013-10-05 19:01:00,47.4,12.4,30.39,ESE,103,1.0,10.0,24,0.00,,,0.00,0,WeatherCatV1.21B27,2013-10-06 02:01:00,
2013-10-05 19:06:00,47.4,12.4,30.39,SE,130,5.0,7.0,24,0.00,,,0.00,0,WeatherCatV1.21B27,2013-10-06 02:06:00,
2013-10-05 19:11:00,47.3,12.4,30.39,ESE,113,4.0,6.0,24,0.00,,,0.00,0,WeatherCatV1.21B27,2013-10-06 02:11:00,
2013-10-05 19:16:00,47.0,12.1,30.36,ESE,120,5.0,8.0,24,0.00,,,0.00,0,WeatherCatV1.21B27,2013-10-06 02:16:00,
2013-10-05 19:21:00,47.0,12.1,30.36,ESE,115,5.0,6.0,24,0.00,,,0.00,0,WeatherCatV1.21B27,2013-10-06 02:21:00,
2013-10-05 19:26:00,47.0,13.0,30.36,ESE,112,3.0,9.0,25,0.00,,,0.00,0,WeatherCatV1.21B27,2013-10-06 02:26:00,
2013-10-05 19:31:00,46.8,12.9,30.36,ESE,108,2.0,7.0,25,0.00,,,0.00,0,WeatherCatV1.21B27,2013-10-06 02:31:00,
2013-10-05 19:36:00,46.7,12.8,30.36,ESE,112,5.0,11.0,25,0.00,,,0.00,0,WeatherCatV1.21B27,2013-10-06 02:36:00,
2013-10-05 19:41:00,46.5,12.6,30.36,East,95,2.0,10.0,25,0.00,,,0.00,0,WeatherCatV1.21B27,2013-10-06 02:41:00,
2013-10-05 19:46:00,46.5,12.6,30.37,East,101,8.0,9.0,25,0.00,,,0.00,0,WeatherCatV1.21B27,2013-10-06 02:46:00,
2013-10-05 19:51:00,46.5,12.6,30.37,ESE,108,5.0,8.0,25,0.00,,,0.00,0,WeatherCatV1.21B27,2013-10-06 02:51:00,
2013-10-05 19:56:00,46.5,12.6,30.37,East,97,7.0,11.0,25,0.00,,,0.00,0,WeatherCatV1.21B27,2013-10-06 02:56:00,
2013-10-05 20:01:00,46.5,12.6,30.36,ESE,122,4.0,10.0,25,0.00,,,0.00,0,WeatherCatV1.21B27,2013-10-06 03:01:00,
2013-10-05 20:06:00,46.4,12.5,30.36,SE,144,6.0,9.0,25,0.00,,,0.00,0,WeatherCatV1.21B27,2013-10-06 03:06:00,
2013-10-05 20:11:00,46.2,12.3,30.36,ESE,108,9.0,11.0,25,0.00,,,0.00,0,WeatherCatV1.21B27,2013-10-06 03:11:00,
2013-10-05 20:16:00,46.2,12.3,30.33,ESE,102,4.0,8.0,25,0.00,,,0.00,0,WeatherCatV1.21B27,2013-10-06 03:16:00,
2013-10-05 20:21:00,46.1,12.3,30.33,ESE,117,5.0,11.0,25,0.00,,,0.00,0,WeatherCatV1.21B27,2013-10-06 03:21:00,
2013-10-05 20:26:00,46.1,12.3,30.33,ESE,119,9.0,9.0,25,0.00,,,0.00,0,WeatherCatV1.21B27,2013-10-06 03:26:00,
2013-10-05 20:31:00,46.0,13.1,30.33,ESE,116,6.0,7.0,26,0.00,,,0.00,0,WeatherCatV1.21B27,2013-10-06 03:31:00,
2013-10-05 20:36:00,45.8,12.0,30.33,ESE,119,6.0,9.0,25,0.00,,,0.00,0,WeatherCatV1.21B27,2013-10-06 03:36:00,
2013-10-05 20:41:00,45.7,11.9,30.33,ESE,112,9.0,10.0,25,0.00,,,0.00,0,WeatherCatV1.21B27,2013-10-06 03:41:00,
2013-10-05 20:46:00,45.7,12.8,30.34,ESE,110,6.0,11.0,26,0.00,,,0.00,0,WeatherCatV1.21B27,2013-10-06 03:46:00,
2013-10-05 20:51:00,45.7,12.8,30.34,SE,127,9.0,11.0,26,0.00,,,0.00,0,WeatherCatV1.21B27,2013-10-06 03:51:00,
2013-10-05 20:56:00,45.7,12.8,30.34,ESE,117,7.0,10.0,26,0.00,,,0.00,0,WeatherCatV1.21B27,2013-10-06 03:56:00,
2013-10-05 21:01:00,45.8,12.0,30.33,ESE,108,6.0,7.0,25,0.00,,,0.00,0,WeatherCatV1.21B27,2013-10-06 04:01:00,
2013-10-05 21:02:00,45.8,12.0,30.33,ESE,116,8.0,8.0,25,0.00,,,0.00,0,WeatherCatV1.21B27,2013-10-06 04:02:00,
2013-10-05 21:03:00,45.7,11.9,30.33,ESE,116,5.0,9.0,25,0.00,,,0.00,0,WeatherCatV1.21B27,2013-10-06 04:03:00,
2013-10-05 21:05:00,45.8,12.0,30.33,ESE,114,7.0,8.0,25,0.00,,,0.00,0,WeatherCatV1.21B27,2013-10-06 04:05:00,
2013-10-05 21:07:00,45.8,12.0,30.33,ESE,112,5.0,10.0,25,0.00,,,0.00,0,WeatherCatV1.21B27,2013-10-06 04:07:00,
2013-10-05 21:11:00,45.8,12.0,30.33,ESE,114,9.0,9.0,25,0.00,,,0.00,0,WeatherCatV1.21B27,2013-10-06 04:11:00,
2013-10-05 21:16:00,45.8,12.0,30.32,ESE,111,6.0,9.0,25,0.00,,,0.00,0,WeatherCatV1.21B27,2013-10-06 04:16:00,
2013-10-05 21:21:00,45.7,12.8,30.32,East,97,9.0,9.0,26,0.00,,,0.00,0,WeatherCatV1.21B27,2013-10-06 04:21:00,
2013-10-05 21:26:00,45.4,12.6,30.32,ESE,116,7.0,11.0,26,0.00,,,0.00,0,WeatherCatV1.21B27,2013-10-06 04:26:00,
2013-10-05 21:31:00,45.2,12.4,30.33,ESE,110,6.0,8.0,26,0.00,,,0.00,0,WeatherCatV1.21B27,2013-10-06 04:31:00,
2013-10-05 21:36:00,44.9,12.1,30.33,ESE,112,5.0,9.0,26,0.00,,,0.00,0,WeatherCatV1.21B27,2013-10-06 04:36:00,
2013-10-05 21:41:00,44.6,11.9,30.33,ESE,117,7.0,9.0,26,0.00,,,0.00,0,WeatherCatV1.21B27,2013-10-06 04:41:00,
2013-10-05 21:46:00,44.6,11.9,30.33,ESE,108,6.0,9.0,26,0.00,,,0.00,0,WeatherCatV1.21B27,2013-10-06 04:46:00,
2013-10-05 21:51:00,44.6,11.9,30.33,ESE,114,7.0,9.0,26,0.00,,,0.00,0,WeatherCatV1.21B27,2013-10-06 04:51:00,
2013-10-05 21:56:00,44.5,11.8,30.33,SE,130,11.0,11.0,26,0.00,,,0.00,0,WeatherCatV1.21B27,2013-10-06 04:56:00,
2013-10-05 22:01:00,44.5,11.8,30.33,ESE,112,5.0,9.0,26,0.00,,,0.00,0,WeatherCatV1.21B27,2013-10-06 05:01:00,
2013-10-05 22:06:00,44.6,11.9,30.33,ESE,112,4.0,7.0,26,0.00,,,0.00,0,WeatherCatV1.21B27,2013-10-06 05:06:00,
2013-10-05 22:11:00,44.6,11.9,30.33,ESE,111,5.0,11.0,26,0.00,,,0.00,0,WeatherCatV1.21B27,2013-10-06 05:11:00,
2013-10-05 22:16:00,44.6,11.9,30.30,ESE,110,5.0,10.0,26,0.00,,,0.00,0,WeatherCatV1.21B27,2013-10-06 05:16:00,
2013-10-05 22:21:00,44.6,11.9,30.30,ESE,114,5.0,7.0,26,0.00,,,0.00,0,WeatherCatV1.21B27,2013-10-06 05:21:00,
2013-10-05 22:26:00,44.8,12.0,30.30,ESE,106,2.0,9.0,26,0.00,,,0.00,0,WeatherCatV1.21B27,2013-10-06 05:26:00,
2013-10-05 22:31:00,44.9,12.1,30.30,ESE,121,9.0,12.0,26,0.00,,,0.00,0,WeatherCatV1.21B27,2013-10-06 05:31:00,
2013-10-05 22:36:00,44.9,12.1,30.30,ESE,105,4.0,11.0,26,0.00,,,0.00,0,WeatherCatV1.21B27,2013-10-06 05:36:00,
2013-10-05 22:41:00,45.1,12.3,30.30,ESE,118,7.0,15.0,26,0.00,,,0.00,0,WeatherCatV1.21B27,2013-10-06 05:41:00,
2013-10-05 22:46:00,45.2,12.4,30.29,ESE,111,5.0,12.0,26,0.00,,,0.00,0,WeatherCatV1.21B27,2013-10-06 05:46:00,
2013-10-05 22:51:00,45.4,12.6,30.29,ESE,108,5.0,12.0,26,0.00,,,0.00,0,WeatherCatV1.21B27,2013-10-06 05:51:00,
2013-10-05 22:56:00,45.4,12.6,30.29,ESE,114,5.0,9.0,26,0.00,,,0.00,0,WeatherCatV1.21B27,2013-10-06 05:56:00,
2013-10-05 23:01:00,45.2,12.4,30.29,ESE,109,4.0,10.0,26,0.00,,,0.00,0,WeatherCatV1.21B27,2013-10-06 06:01:00,
2013-10-05 23:06:00,45.2,12.4,30.29,ESE,116,6.0,11.0,26,0.00,,,0.00,0,WeatherCatV1.21B27,2013-10-06 06:06:00,
2013-10-05 23:11:00,44.9,12.1,30.29,ESE,119,4.0,9.0,26,0.00,,,0.00,0,WeatherCatV1.21B27,2013-10-06 06:11:00,
2013-10-05 23:16:00,45.1,12.3,30.27,ESE,118,6.0,11.0,26,0.00,,,0.00,0,WeatherCatV1.21B27,2013-10-06 06:16:00,
2013-10-05 23:21:00,45.2,12.4,30.27,ESE,107,5.0,8.0,26,0.00,,,0.00,0,WeatherCatV1.21B27,2013-10-06 06:21:00,
2013-10-05 23:26:00,45.1,12.3,30.27,ESE,110,3.0,9.0,26,0.00,,,0.00,0,WeatherCatV1.21B27,2013-10-06 06:26:00,
2013-10-05 23:31:00,44.9,12.1,30.27,ESE,112,6.0,7.0,26,0.00,,,0.00,0,WeatherCatV1.21B27,2013-10-06 06:31:00,
2013-10-05 23:36:00,44.8,12.0,30.27,ESE,107,4.0,7.0,26,0.00,,,0.00,0,WeatherCatV1.21B27,2013-10-06 06:36:00,
2013-10-05 23:41:00,44.8,12.0,30.27,ESE,104,3.0,7.0,26,0.00,,,0.00,0,WeatherCatV1.21B27,2013-10-06 06:41:00,
2013-10-05 23:46:00,44.6,11.9,30.27,ESE,104,2.0,7.0,26,0.00,,,0.00,0,WeatherCatV1.21B27,2013-10-06 06:46:00,
2013-10-05 23:51:00,44.5,11.8,30.27,ESE,108,3.0,7.0,26,0.00,,,0.00,0,WeatherCatV1.21B27,2013-10-06 06:51:00,
2013-10-05 23:56:00,44.5,11.8,30.27,ESE,111,5.0,5.0,26,0.00,,,0.00,0,WeatherCatV1.21B27,2013-10-06 06:56:00,